AirNav   ProFlight Series 2 Aviation Headset
 
 1021 users online  

22PS Montrose High School Heliport
Montrose, Pennsylvania, USA

GOING TO MONTROSE?


FAA INFORMATION EFFECTIVE 18 JUNE 2020

Location

FAA Identifier: 22PS
Lat/Long: 41-50-36.3100N 075-50-33.3100W
41-50.605167N 075-50.555167W
41.8434194,-75.8425861
(estimated)
Elevation: 1740 ft. / 530 m (estimated)
Variation: 13W (2005)
From city: 2 miles W of MONTROSE, PA
Time zone: UTC -4 (UTC -5 during Standard Time)
Zip code: 18801

Heliport Operations

Heliport use: Private use, MEDICAL USE.
Activation date: 01/2007
Control tower: no
ARTCC: NEW YORK CENTER
FSS: WILLIAMSPORT FLIGHT SERVICE STATION
NOTAMs facility: FDC (NOTAM-D service not available)
Attendance: CONTINUOUS
Segmented circle: no
Lights: FOR PERIMETER LGTS CALL 570-278-3731.

Heliport Communications

BINGHAMTON APPROACH: 118.6
BINGHAMTON DEPARTURE: 118.6
FIBTI DP: 118.6
WX AWOS-3 at CZG (18 nm NW): 119.075 (607-785-2926)

Nearby radio navigation aids

VOR radial/distance  VOR name  Freq  Var
CFBr155/23.0BINGHAMTON VOR/DME112.2010W
HNKr252/26.9HANCOCK VOR/DME116.8011W
LVZr359/34.9WILKES-BARRE VORTAC111.6010W

Heliport Services

Runway Information

Helipad H1

Dimensions: 50 x 50 ft. / 15 x 15 m
Surface: turf, in fair condition
Runway edge lights: PERI
Latitude: 41-50.605167N
Longitude: 075-50.555167W
Elevation: 1740.0 ft.
Traffic pattern: leftleft
Markings: none, in fair condition

Heliport Ownership and Management from official FAA records

Ownership: Privately-owned
Owner: MONTROSE HIGH SCHOOL
75 METEOR WAY
MONTROSE, PA 18801-9507
Phone 570-278-3731
Manager: MICHELLE LUSK, BUS. MGR.
273 METEOR WAY
MONTROSE, PA 18801-9507
Phone 570-278-6213

Additional Remarks

FOR CD CTC NEW YORK ARTCC AT 631-468-1425.

Instrument Procedures

There are no published instrument procedures at 22PS.

Some nearby airports with instrument procedures:

9N3 - Seamans Field Airport (16 nm S)
KCZG - Tri-Cities Airport (18 nm NW)
KBGM - Greater Binghamton Airport/Edwin A Link Field (23 nm N)
N27 - Bradford County Airport (28 nm W)
KAVP - Wilkes-Barre/Scranton International Airport (31 nm S)
 
Loc | Ops | Rwys | IFR | FBO | Links
Com | Nav | Svcs | Stats | Notes
Area around 22PS (Montrose High School Heliport)
 
Road maps at: MapQuest Bing Google
 
Aerial photo
No photo
 
Sectional chart

 
Airport distance calculator
Flying to Montrose High School Heliport? Find the distance to fly.

From to 22PS

Sunrise and sunset
Times for 07-Jul-2020
 Local
(UTC-4)
 Zulu
(UTC)
Morning civil twilight05:0409:04
Sunrise05:3709:37
Sunset20:4000:40
Evening civil twilight21:1301:13

Current date and time
Zulu (UTC)  08-Jul-2020 02:32:11
Local (UTC-4)  07-Jul-2020 22:32:11
 
METAR
KBGM 
23nm N 
080153Z AUTO 21006KT 10SM CLR 22/18 A3005 RMK AO2 SLP165 T02170183
KAVP 
31nm S 
080154Z 00000KT 10SM CLR 24/19 A3004 RMK AO2 SLP162 T02390194
KITH 
46nm NW 
080156Z 16008KT 10SM CLR 24/19 A3001 RMK AO2 SLP155 T02390194
TAF
KBGM 
23nm N 
071727Z 0718/0818 19007G15KT P6SM BKN035 FM072100 VRB04KT P6SM FEW060 TEMPO 0810/0813 BKN025 FM081600 23008KT P6SM SCT040
NOTAMs
Click for the latest NOTAMs
NOTAMs are issued by the DoD/FAA and will open in a separate window not controlled by AirNav.

 

 
 

Would you like to see your business listed on this page?

 If your business provides an interesting product or service to pilots, flight crews, aircraft, or users of the Montrose High School Heliport, you should consider listing it here.  To start the listing process, click on the button below
 
Add a business
 

Other Pages about Montrose High School Heliport

Update a link
 
Copyright © AirNav, LLC. All rights reserved. Privacy Policy  Contact